EW6223 Weather Reports


Display with metric or nautical units.
time (UTC)temp
F
wind
direction
speed
MPH
gust
MPH
rain 1hr
in
rain 24hr
in
rain mn
in
humidity
%
barometer
mb
20260507104503 0 0.0 0.0 0.00 0.00 0.00 1002.5
20260507103058 0 0.0 0.0 0.00 0.00 0.00 1002.8
20260507101557 0 0.0 0.0 0.00 0.00 0.00 1002.4
20260507100047 0 0.0 0.0 0.00 0.00 0.00 1002.5
20260507094544 0 0.0 0.0 0.00 0.00 0.00 1003.2
20260507093041 0 0.0 0.0 0.00 0.00 0.00 1003.1
20260507091540 75 71 0.0 3.0 0.00 0.00 0.00 75 1003.1
20260507090030 75 86 1.0 3.0 0.00 0.00 0.00 75 1003.3
20260507084532 74 86 0.0 2.0 0.00 0.00 0.00 76 1003.4
20260507083029 74 85 0.0 0.0 0.00 0.00 0.00 77 1004.4
20260507081527 74 85 0.0 2.0 0.00 0.00 0.00 79 1003.9
20260507080024 75 86 0.0 0.0 0.00 0.00 0.00 82 1003.7
20260507074524 75 85 0.0 0.0 0.00 0.00 0.00 82 1003.6
20260507073022 75 86 0.0 0.0 0.00 0.00 0.00 81 1005.1
20260507071521 75 86 0.0 0.0 0.00 0.00 0.00 81 1004.6
20260507070020 75 86 0.0 1.0 0.00 0.00 0.00 81 1004.1
20260507064517 75 85 0.0 0.0 0.00 0.00 0.00 80 1005.5
20260507063029 76 85 0.0 0.0 0.00 0.00 0.00 80 1000.0
20260507061516 76 86 0.0 0.0 0.00 0.00 0.00 79 1004.1
20260507060032 76 86 0.0 0.0 0.00 0.00 0.00 79 1003.8
20260507054545 76 86 0.0 0.0 0.00 0.00 0.00 78 1005.2
20260507053043 76 85 0.0 0.0 0.00 0.00 0.00 79 1004.7
20260507051540 76 86 0.0 0.0 0.00 0.00 0.00 78 1002.8
20260507050039 76 86 0.0 0.0 0.00 0.00 0.00 78 1004.0
20260507044540 77 85 0.0 0.0 0.00 0.00 0.00 77 1002.5
20260507043038 77 86 0.0 0.0 0.00 0.00 0.00 77 1003.1
20260507041532 77 86 0.0 0.0 0.00 0.00 0.00 76 999.1
20260507040034 77 86 0.0 0.0 0.00 0.00 0.00 76 996.5
20260507034535 77 86 0.0 1.0 0.00 0.00 0.00 75 997.2
20260507033029 77 86 0.0 0.0 0.00 0.00 0.00 75 997.2
20260507031527 77 86 0.0 2.0 0.00 0.00 0.00 75 1004.9
20260507030027 78 85 1.0 3.0 0.00 0.00 0.00 74 986.9
20260507024527 78 86 1.0 4.0 0.00 0.00 0.00 74 986.5
20260507023025 78 69 2.0 4.0 0.00 0.00 0.00 74 988.7
20260507021523 78 73 1.0 6.0 0.00 0.00 0.00 73 995.8
20260507020030 78 79 2.0 4.0 0.00 0.00 0.00 72 1000.0
20260507014522 79 81 2.0 4.0 0.00 0.00 0.00 71 999.2
20260507013039 79 60 2.0 3.0 0.00 0.00 0.00 70 997.1
20260507011603 79 87 2.0 4.0 0.00 0.00 0.00 69 995.9
20260507010104 79 84 2.0 4.0 0.00 0.00 0.00 68 993.7
20260507004554 79 88 2.0 4.0 0.00 0.00 0.00 67 993.7
20260507003054 80 76 3.0 5.0 0.00 0.00 0.00 66 993.7
20260507001554 81 83 3.0 5.0 0.00 0.00 0.00 65 999.4
20260507000052 81 80 3.0 5.0 0.00 0.00 0.00 65 999.7
20260506234551 80 60 2.0 4.0 0.00 0.00 0.00 63 994.8
20260506233104 80 66 2.0 4.0 0.00 0.00 0.00 63 997.6
20260506231549 79 79 2.0 5.0 0.00 0.00 0.00 63 1000.6
20260506230049 80 73 2.0 4.0 0.00 0.00 0.00 63 992.4
20260506224548 81 122 1.0 4.0 0.00 0.00 0.00 60 991.4
20260506223050 81 154 1.0 4.0 0.00 0.00 0.00 59 1001.7
20260506221553 79 158 2.0 4.0 0.00 0.00 0.00 62 1001.7
20260506220044 81 193 2.0 5.0 0.00 0.00 0.00 60 1001.2
20260506214544 80 211 2.0 5.0 0.00 0.00 0.00 61 1004.3
20260506213044 81 224 3.0 5.0 0.00 0.00 0.00 58 1000.7
20260506211542 83 172 2.0 4.0 0.00 0.00 0.00 55 1003.9
20260506210043 85 223 2.0 4.0 0.00 0.00 0.00 52 1004.9
20260506204541 85 226 2.0 4.0 0.00 0.00 0.00 52 1006.5
20260506203039 85 227 2.0 4.0 0.00 0.00 0.00 53 1005.2
20260506201511 85 177 2.0 5.0 0.00 0.00 0.00 54 998.0
20260506200027 85 210 3.0 5.0 0.00 0.00 0.00 55 1002.8
20260506194507 86 271 1.0 5.0 0.00 0.00 0.00 58 1000.0
20260506193007 84 123 1.0 4.0 0.00 0.00 0.00 60 1000.9
20260506191506 85 188 2.0 4.0 0.00 0.00 0.00 59 1003.4
20260506190006 85 172 2.0 5.0 0.00 0.00 0.00 59 1003.7
20260506184627 86 196 1.0 5.0 0.00 0.00 0.00 60 1000.6
20260506183035 84 225 2.0 7.0 0.00 0.00 0.00 63 1003.7
20260506181530 83 217 1.0 6.0 0.00 0.00 0.00 67 1006.4
20260506180026 82 183 1.0 4.0 0.00 0.00 0.00 68 1007.1
20260506174524 82 235 1.0 4.0 0.00 0.00 0.00 68 1001.8
20260506173024 82 199 1.0 5.0 0.00 0.00 0.00 67 1000.3
20260506171525 83 189 1.0 4.0 0.00 0.00 0.00 65 1005.5
20260506170019 83 151 1.0 4.0 0.00 0.00 0.00 66 1001.2
20260506164517 83 110 2.0 3.0 0.00 0.00 0.00 65 999.4
20260506163013 82 221 0.0 4.0 0.00 0.00 0.00 66 1001.4
20260506161510 82 167 1.0 4.0 0.00 0.00 0.00 67 1006.9
20260506160039 81 193 1.0 4.0 0.00 0.00 0.00 67 1005.8
20260506154537 80 177 1.0 4.0 0.00 0.00 0.00 68 1007.0
20260506153102 80 128 1.0 3.0 0.00 0.00 0.00 67 1005.5
20260506151556 80 139 0.0 3.0 0.00 0.00 0.00 67 1006.8
20260506150051 80 154 1.0 3.0 0.00 0.00 0.00 65 1006.7
20260506144549 80 196 0.0 3.0 0.00 0.00 0.00 62 1006.6
20260506143045 78 254 0.0 0.0 0.00 0.00 0.00 63 1005.4
20260506141559 77 254 0.0 3.0 0.00 0.00 0.00 63 1005.2
20260506140040 76 217 1.0 3.0 0.00 0.00 0.00 65 1006.1
20260506134532 75 52 0.0 0.0 0.00 0.00 0.00 71 1006.0
20260506133027 0 0.0 0.0 0.00 0.00 0.00 1005.9
20260506131525 0 0.0 0.0 0.00 0.00 0.00 1005.6
20260506130050 0 0.0 0.0 0.00 0.00 0.00 1005.6
20260506124546 0 0.0 0.0 0.00 0.00 0.00 1005.5
20260506123043 74 278 0.0 2.0 0.00 0.00 0.00 62 1005.4
20260506121543 74 278 0.0 2.0 0.00 0.00 0.00 62 1005.0
20260506120105 74 278 0.0 0.0 0.00 0.00 0.00 60 1004.8
20260506114541 74 278 0.0 0.0 0.00 0.00 0.00 62 1004.7
20260506113036 73 278 0.0 0.0 0.00 0.00 0.00 62 1004.5
20260506111539 74 278 2.0 4.0 0.00 0.00 0.00 61 1004.6
20260506110035 74 278 2.0 6.0 0.00 0.00 0.00 62 1004.5